This is the latest recevied weather packets stored in our database for station/object W6SNO-1. If no packets are shown the sender has not sent any weather packets the latest 10 day(s).
| Time | Temp. | Humidity | Pressure | Rain* | Wind** | Luminosity | Snow |
|---|---|---|---|---|---|---|---|
| 1777997964 | 13.33° C | 75% | 1015.9 hPa | 0 mm | - | 143 W/m² | - |
| 1777997661 | 13.33° C | 75% | 1015.6 hPa | 0 mm | - | 142 W/m² | - |
| 1777997358 | 13.33° C | 75% | 1016 hPa | 0 mm | - | 122 W/m² | - |
| 1777996752 | 12.78° C | 76% | 1015.6 hPa | 0 mm | - | 89 W/m² | - |
| 1777996449 | 12.78° C | 76% | 1015.8 hPa | 0 mm | - | 89 W/m² | - |
| 1777996146 | 12.78° C | 76% | 1015.7 hPa | 0 mm | - | 91 W/m² | - |
| 1777995841 | 12.78° C | 77% | 1015.7 hPa | 0 mm | - | 117 W/m² | - |
| 1777995538 | 12.22° C | 77% | 1015.6 hPa | 0 mm | - | 99 W/m² | - |
| 1777995235 | 12.22° C | 77% | 1015.6 hPa | 0 mm | - | 99 W/m² | - |
| 1777994329 | 11.67° C | 78% | 1015.5 hPa | 0 mm | - | 61 W/m² | - |
| 1777994026 | 11.67° C | 78% | 1015.6 hPa | 0 mm | - | 61 W/m² | - |
| 1777993723 | 12.22° C | 77% | 1015.5 hPa | 0 mm | - | 60 W/m² | - |
| 1777993420 | 12.22° C | 77% | 1015.4 hPa | 0 mm | - | 60 W/m² | - |
| 1777993114 | 12.22° C | 80% | 1015.4 hPa | 0 mm | - | 61 W/m² | - |
| 1777992813 | 11.67° C | 80% | 1015.6 hPa | 0 mm | - | 35 W/m² | - |
| 1777992510 | 11.67° C | 80% | 1015.4 hPa | 0 mm | - | 33 W/m² | - |
| 1777992209 | 11.67° C | 79% | 1015.4 hPa | 0 mm | - | 30 W/m² | - |
| 1777991905 | 11.67° C | 79% | 1015.4 hPa | 0 mm | - | 32 W/m² | - |
| 1777991603 | 11.67° C | 79% | 1015.4 hPa | 0 mm | - | 36 W/m² | - |
| 1777991300 | 11.67° C | 78% | 1015.1 hPa | 0 mm | - | 29 W/m² | - |
| 1777990997 | 11.67° C | 77% | 1015 hPa | 0 mm | - | 26 W/m² | - |
| 1777990695 | 12.22° C | 77% | 1015 hPa | 0 mm | - | 18 W/m² | - |
| 1777990392 | 12.22° C | 85% | 1015.1 hPa | 0 mm | - | 17 W/m² | - |
| 1777989779 | 11.11° C | 82% | 1015.1 hPa | 0 mm | - | 9 W/m² | - |
| 1777989476 | 11.11° C | 82% | 1015.2 hPa | 0 mm | - | 8 W/m² | - |
* Rain latest hour (hover to see other rain measurements)
** Current wind speed in m/s (hover to see current wind gust speed)